This is the latest recevied weather packets stored in our database for station/object N8QQQ. If no packets are shown the sender has not sent any weather packets the latest 10 day(s).
| Time | Temp. | Humidity | Pressure | Rain* | Wind** | Luminosity | Snow |
|---|---|---|---|---|---|---|---|
| 1777786919 | 0° C | 86% | 1008.7 hPa | 0 mm | - | 0 W/m² | - |
| 1777786617 | 0° C | 87% | 1008.8 hPa | 0 mm | - | 0 W/m² | - |
| 1777786316 | 0° C | 88% | 1008.9 hPa | 0 mm | - | 0 W/m² | - |
| 1777786011 | 0° C | 86% | 1009.3 hPa | 0 mm | - | 0 W/m² | - |
| 1777785708 | 0° C | 83% | 1009 hPa | 0 mm | - | 0 W/m² | - |
| 1777785403 | 0° C | 85% | 1009.2 hPa | 0 mm | - | 0 W/m² | - |
| 1777785101 | 0° C | 86% | 1009.3 hPa | 0 mm | - | 0 W/m² | - |
| 1777784798 | 0° C | 86% | 1009.3 hPa | 0 mm | - | 0 W/m² | - |
| 1777784494 | 0° C | 86% | 1009.3 hPa | 0 mm | - | 0 W/m² | - |
| 1777784192 | 0° C | 86% | 1009.3 hPa | 0 mm | - | 0 W/m² | - |
| 1777783889 | -0.56° C | 83% | 1009.4 hPa | 0 mm | - | 0 W/m² | - |
| 1777783586 | -0.56° C | 83% | 1009.7 hPa | 0 mm | - | 0 W/m² | - |
| 1777783283 | -0.56° C | 82% | 1009.3 hPa | 0 mm | - | 0 W/m² | - |
| 1777782980 | -1.11° C | 83% | 1009.5 hPa | 0 mm | - | 0 W/m² | - |
| 1777782677 | -1.11° C | 84% | 1009.7 hPa | 0 mm | - | 0 W/m² | - |
| 1777782373 | -1.11° C | 83% | 1009.7 hPa | 0 mm | - | 0 W/m² | - |
| 1777782069 | -1.11° C | 83% | 1009.7 hPa | 0 mm | - | 0 W/m² | - |
| 1777781766 | -0.56° C | 81% | 1009.4 hPa | 0 mm | - | 0 W/m² | - |
| 1777781464 | -0.56° C | 82% | 1009.8 hPa | 0 mm | - | 0 W/m² | - |
| 1777781161 | -1.11° C | 82% | 1010 hPa | 0 mm | - | 0 W/m² | - |
| 1777780858 | -0.56° C | 80% | 1010 hPa | 0 mm | - | 0 W/m² | - |
| 1777780554 | -0.56° C | 80% | 1010.2 hPa | 0 mm | - | 0 W/m² | - |
| 1777780253 | -0.56° C | 79% | 1010.2 hPa | 0 mm | - | 0 W/m² | - |
| 1777779949 | -0.56° C | 78% | 1010 hPa | 0 mm | - | 0 W/m² | - |
| 1777779647 | -1.11° C | 79% | 1010 hPa | 0 mm | - | 0 W/m² | - |
* Rain latest hour (hover to see other rain measurements)
** Current wind speed in m/s (hover to see current wind gust speed)